owner,sensor,date,latitude,longitude,air_temperature,qcFlag 
DISL,ioos:station:DISL:MHPA:1,2008-08-01T00:00:00Z,30.6671,-87.9365,28.36,1111122 
DISL,ioos:station:DISL:MHPA:1,2008-08-01T00:30:00Z,30.6671,-87.9365,28.19,1111122 
DISL,ioos:station:DISL:MHPA:1,2008-08-01T01:00:00Z,30.6671,-87.9365,28.03,1111122 
DISL,ioos:station:DISL:MHPA:1,2008-08-01T01:30:00Z,30.6671,-87.9365,26.5,1111122 
DISL,ioos:station:DISL:MHPA:1,2008-08-01T02:00:00Z,30.6671,-87.9365,26.38,1111122 
DISL,ioos:station:DISL:MHPA:1,2008-08-01T02:30:00Z,30.6671,-87.9365,26.07,1111122 
DISL,ioos:station:DISL:MHPA:1,2008-08-01T03:00:00Z,30.6671,-87.9365,26.01,1111122 
DISL,ioos:station:DISL:MHPA:1,2008-08-01T03:30:00Z,30.6671,-87.9365,26.0,1111122 
DISL,ioos:station:DISL:MHPA:1,2008-08-01T04:00:00Z,30.6671,-87.9365,25.71,1111122 
DISL,ioos:station:DISL:MHPA:1,2008-08-01T04:30:00Z,30.6671,-87.9365,26.69,1111122 
DISL,ioos:station:DISL:MHPA:1,2008-08-01T05:00:00Z,30.6671,-87.9365,27.19,1111122 
DISL,ioos:station:DISL:MHPA:1,2008-08-01T05:30:00Z,30.6671,-87.9365,26.71,1111122 
DISL,ioos:station:DISL:MHPA:1,2008-08-01T06:00:00Z,30.6671,-87.9365,26.76,1111122 
DISL,ioos:station:DISL:MHPA:1,2008-08-01T06:30:00Z,30.6671,-87.9365,26.5,1111122 
DISL,ioos:station:DISL:MHPA:1,2008-08-01T07:00:00Z,30.6671,-87.9365,25.71,1111122 
DISL,ioos:station:DISL:MHPA:1,2008-08-01T07:30:00Z,30.6671,-87.9365,25.57,1111122 
DISL,ioos:station:DISL:MHPA:1,2008-08-01T08:00:00Z,30.6671,-87.9365,25.27,1111122 
DISL,ioos:station:DISL:MHPA:1,2008-08-01T08:30:00Z,30.6671,-87.9365,25.5,1111122 
DISL,ioos:station:DISL:MHPA:1,2008-08-01T09:00:00Z,30.6671,-87.9365,25.94,1111122 
DISL,ioos:station:DISL:MHPA:1,2008-08-01T09:30:00Z,30.6671,-87.9365,26.26,1111122 
DISL,ioos:station:DISL:MHPA:1,2008-08-01T10:00:00Z,30.6671,-87.9365,26.66,1111122 
DISL,ioos:station:DISL:MHPA:1,2008-08-01T10:30:00Z,30.6671,-87.9365,26.63,1111122 
DISL,ioos:station:DISL:MHPA:1,2008-08-01T11:00:00Z,30.6671,-87.9365,26.5,1111122 
DISL,ioos:station:DISL:MHPA:1,2008-08-01T11:30:00Z,30.6671,-87.9365,26.15,1111122 
DISL,ioos:station:DISL:MHPA:1,2008-08-01T12:00:00Z,30.6671,-87.9365,26.1,1111122 
DISL,ioos:station:DISL:MHPA:1,2008-08-01T12:30:00Z,30.6671,-87.9365,26.02,1111122 
DISL,ioos:station:DISL:MHPA:1,2008-08-01T13:00:00Z,30.6671,-87.9365,26.2,1111122 
DISL,ioos:station:DISL:MHPA:1,2008-08-01T13:30:00Z,30.6671,-87.9365,26.49,1111122 
DISL,ioos:station:DISL:MHPA:1,2008-08-01T14:00:00Z,30.6671,-87.9365,26.49,1111122 
DISL,ioos:station:DISL:MHPA:1,2008-08-01T14:30:00Z,30.6671,-87.9365,26.61,1111122 
DISL,ioos:station:DISL:MHPA:1,2008-08-01T15:00:00Z,30.6671,-87.9365,26.76,1111122 
DISL,ioos:station:DISL:MHPA:1,2008-08-01T15:30:00Z,30.6671,-87.9365,27.09,1111122 
DISL,ioos:station:DISL:MHPA:1,2008-08-01T16:00:00Z,30.6671,-87.9365,26.8,1111122 
DISL,ioos:station:DISL:MHPA:1,2008-08-01T16:30:00Z,30.6671,-87.9365,25.23,1111122 
DISL,ioos:station:DISL:MHPA:1,2008-08-01T17:00:00Z,30.6671,-87.9365,25.73,1111122 
DISL,ioos:station:DISL:MHPA:1,2008-08-01T17:30:00Z,30.6671,-87.9365,25.83,1111122 
DISL,ioos:station:DISL:MHPA:1,2008-08-01T18:00:00Z,30.6671,-87.9365,25.95,1111122 
DISL,ioos:station:DISL:MHPA:1,2008-08-01T18:30:00Z,30.6671,-87.9365,25.46,1111122 
DISL,ioos:station:DISL:MHPA:1,2008-08-01T19:00:00Z,30.6671,-87.9365,23.52,1111122 
DISL,ioos:station:DISL:MHPA:1,2008-08-01T19:30:00Z,30.6671,-87.9365,24.59,1111122 
DISL,ioos:station:DISL:MHPA:1,2008-08-01T20:00:00Z,30.6671,-87.9365,24.42,1111122 
DISL,ioos:station:DISL:MHPA:1,2008-08-01T20:30:00Z,30.6671,-87.9365,24.19,1111122 
DISL,ioos:station:DISL:MHPA:1,2008-08-01T21:00:00Z,30.6671,-87.9365,24.03,1111122 
DISL,ioos:station:DISL:MHPA:1,2008-08-01T21:30:00Z,30.6671,-87.9365,23.74,1111122 
DISL,ioos:station:DISL:MHPA:1,2008-08-01T22:00:00Z,30.6671,-87.9365,24.14,1111122 
DISL,ioos:station:DISL:MHPA:1,2008-08-01T22:30:00Z,30.6671,-87.9365,24.29,1111122 
DISL,ioos:station:DISL:MHPA:1,2008-08-01T23:00:00Z,30.6671,-87.9365,24.33,1111122 
DISL,ioos:station:DISL:MHPA:1,2008-08-01T23:30:00Z,30.6671,-87.9365,24.34,1111122 
DISL,ioos:station:DISL:MHPA:1,2008-08-02T00:00:00Z,30.6671,-87.9365,24.23,1111122 
DISL,ioos:station:DISL:MHPA:1,2008-08-02T00:30:00Z,30.6671,-87.9365,24.18,1111122 
DISL,ioos:station:DISL:MHPA:1,2008-08-02T01:00:00Z,30.6671,-87.9365,24.17,1111122 
DISL,ioos:station:DISL:MHPA:1,2008-08-02T01:30:00Z,30.6671,-87.9365,24.26,1111122 
DISL,ioos:station:DISL:MHPA:1,2008-08-02T02:00:00Z,30.6671,-87.9365,24.31,1111122 
DISL,ioos:station:DISL:MHPA:1,2008-08-02T02:30:00Z,30.6671,-87.9365,24.65,1111122 
DISL,ioos:station:DISL:MHPA:1,2008-08-02T03:00:00Z,30.6671,-87.9365,24.53,1111122 
DISL,ioos:station:DISL:MHPA:1,2008-08-02T03:30:00Z,30.6671,-87.9365,24.69,1111122 
DISL,ioos:station:DISL:MHPA:1,2008-08-02T04:00:00Z,30.6671,-87.9365,24.65,1111122 
DISL,ioos:station:DISL:MHPA:1,2008-08-02T04:30:00Z,30.6671,-87.9365,24.74,1111122 
DISL,ioos:station:DISL:MHPA:1,2008-08-02T05:00:00Z,30.6671,-87.9365,24.66,1111122 
DISL,ioos:station:DISL:MHPA:1,2008-08-02T05:30:00Z,30.6671,-87.9365,24.67,1111122 
DISL,ioos:station:DISL:MHPA:1,2008-08-02T06:00:00Z,30.6671,-87.9365,24.82,1111122 
DISL,ioos:station:DISL:MHPA:1,2008-08-02T06:30:00Z,30.6671,-87.9365,24.92,1111122 
DISL,ioos:station:DISL:MHPA:1,2008-08-02T07:00:00Z,30.6671,-87.9365,24.89,1111122 
DISL,ioos:station:DISL:MHPA:1,2008-08-02T07:30:00Z,30.6671,-87.9365,24.51,1111122 
DISL,ioos:station:DISL:MHPA:1,2008-08-02T08:00:00Z,30.6671,-87.9365,24.38,1111122 
DISL,ioos:station:DISL:MHPA:1,2008-08-02T08:30:00Z,30.6671,-87.9365,24.17,1111122 
DISL,ioos:station:DISL:MHPA:1,2008-08-02T09:00:00Z,30.6671,-87.9365,24.22,1111122 
DISL,ioos:station:DISL:MHPA:1,2008-08-02T09:30:00Z,30.6671,-87.9365,24.13,1111122 
DISL,ioos:station:DISL:MHPA:1,2008-08-02T10:00:00Z,30.6671,-87.9365,24.04,1111122 
DISL,ioos:station:DISL:MHPA:1,2008-08-02T10:30:00Z,30.6671,-87.9365,24.02,1111122 
DISL,ioos:station:DISL:MHPA:1,2008-08-02T11:00:00Z,30.6671,-87.9365,23.79,1111122 
DISL,ioos:station:DISL:MHPA:1,2008-08-02T11:30:00Z,30.6671,-87.9365,23.68,1111122 
DISL,ioos:station:DISL:MHPA:1,2008-08-02T12:00:00Z,30.6671,-87.9365,23.73,1111122 
DISL,ioos:station:DISL:MHPA:1,2008-08-02T12:30:00Z,30.6671,-87.9365,24.09,1111122 
DISL,ioos:station:DISL:MHPA:1,2008-08-02T13:00:00Z,30.6671,-87.9365,24.1,1111122 
DISL,ioos:station:DISL:MHPA:1,2008-08-02T13:30:00Z,30.6671,-87.9365,24.32,1111122 
DISL,ioos:station:DISL:MHPA:1,2008-08-02T14:00:00Z,30.6671,-87.9365,24.92,1111122 
DISL,ioos:station:DISL:MHPA:1,2008-08-02T14:30:00Z,30.6671,-87.9365,25.69,1111122 
DISL,ioos:station:DISL:MHPA:1,2008-08-02T15:00:00Z,30.6671,-87.9365,26.27,1111122 
DISL,ioos:station:DISL:MHPA:1,2008-08-02T15:30:00Z,30.6671,-87.9365,27.13,1111122 
DISL,ioos:station:DISL:MHPA:1,2008-08-02T16:00:00Z,30.6671,-87.9365,27.74,1111122 
DISL,ioos:station:DISL:MHPA:1,2008-08-02T16:30:00Z,30.6671,-87.9365,28.53,1111122 
DISL,ioos:station:DISL:MHPA:1,2008-08-02T17:00:00Z,30.6671,-87.9365,29.34,1111122 
DISL,ioos:station:DISL:MHPA:1,2008-08-02T17:30:00Z,30.6671,-87.9365,29.73,1111122 
DISL,ioos:station:DISL:MHPA:1,2008-08-02T18:00:00Z,30.6671,-87.9365,30.33,1111122 
DISL,ioos:station:DISL:MHPA:1,2008-08-02T18:30:00Z,30.6671,-87.9365,31.1,1111122 
DISL,ioos:station:DISL:MHPA:1,2008-08-02T19:00:00Z,30.6671,-87.9365,31.26,1111122 
DISL,ioos:station:DISL:MHPA:1,2008-08-02T19:30:00Z,30.6671,-87.9365,32.16,1111122 
DISL,ioos:station:DISL:MHPA:1,2008-08-02T20:00:00Z,30.6671,-87.9365,32.27,1111122 
DISL,ioos:station:DISL:MHPA:1,2008-08-02T20:30:00Z,30.6671,-87.9365,32.7,1111122 
DISL,ioos:station:DISL:MHPA:1,2008-08-02T21:00:00Z,30.6671,-87.9365,32.99,1111122 
DISL,ioos:station:DISL:MHPA:1,2008-08-02T21:30:00Z,30.6671,-87.9365,33.16,1111122 
DISL,ioos:station:DISL:MHPA:1,2008-08-02T22:00:00Z,30.6671,-87.9365,33.43,1111122 
DISL,ioos:station:DISL:MHPA:1,2008-08-02T22:30:00Z,30.6671,-87.9365,33.43,1111122 
DISL,ioos:station:DISL:MHPA:1,2008-08-02T23:00:00Z,30.6671,-87.9365,33.56,1111122 
DISL,ioos:station:DISL:MHPA:1,2008-08-02T23:30:00Z,30.6671,-87.9365,33.36,1111122 
DISL,ioos:station:DISL:MHPA:1,2008-08-03T00:00:00Z,30.6671,-87.9365,33.06,1111122 
DISL,ioos:station:DISL:MHPA:1,2008-08-03T00:30:00Z,30.6671,-87.9365,32.23,1111122 
DISL,ioos:station:DISL:MHPA:1,2008-08-03T01:00:00Z,30.6671,-87.9365,30.06,1111122 
DISL,ioos:station:DISL:MHPA:1,2008-08-03T01:30:00Z,30.6671,-87.9365,29.45,1111122 
DISL,ioos:station:DISL:MHPA:1,2008-08-03T02:00:00Z,30.6671,-87.9365,29.31,1111122 
DISL,ioos:station:DISL:MHPA:1,2008-08-03T02:30:00Z,30.6671,-87.9365,29.12,1111122 
DISL,ioos:station:DISL:MHPA:1,2008-08-03T03:00:00Z,30.6671,-87.9365,29.01,1111122 
DISL,ioos:station:DISL:MHPA:1,2008-08-03T03:30:00Z,30.6671,-87.9365,28.98,1111122 
DISL,ioos:station:DISL:MHPA:1,2008-08-03T04:00:00Z,30.6671,-87.9365,28.67,1111122 
DISL,ioos:station:DISL:MHPA:1,2008-08-03T04:30:00Z,30.6671,-87.9365,28.83,1111122 
DISL,ioos:station:DISL:MHPA:1,2008-08-03T05:00:00Z,30.6671,-87.9365,28.81,1111122 
DISL,ioos:station:DISL:MHPA:1,2008-08-03T05:30:00Z,30.6671,-87.9365,28.64,1111122 
DISL,ioos:station:DISL:MHPA:1,2008-08-03T06:00:00Z,30.6671,-87.9365,28.55,1111122 
DISL,ioos:station:DISL:MHPA:1,2008-08-03T06:30:00Z,30.6671,-87.9365,27.51,1111122 
DISL,ioos:station:DISL:MHPA:1,2008-08-03T07:00:00Z,30.6671,-87.9365,26.74,1111122 
DISL,ioos:station:DISL:MHPA:1,2008-08-03T07:30:00Z,30.6671,-87.9365,26.85,1111122 
DISL,ioos:station:DISL:MHPA:1,2008-08-03T08:00:00Z,30.6671,-87.9365,26.74,1111122 
DISL,ioos:station:DISL:MHPA:1,2008-08-03T08:30:00Z,30.6671,-87.9365,26.39,1111122 
DISL,ioos:station:DISL:MHPA:1,2008-08-03T09:00:00Z,30.6671,-87.9365,26.38,1111122 
DISL,ioos:station:DISL:MHPA:1,2008-08-03T09:30:00Z,30.6671,-87.9365,26.61,1111122 
DISL,ioos:station:DISL:MHPA:1,2008-08-03T10:00:00Z,30.6671,-87.9365,26.51,1111122 
DISL,ioos:station:DISL:MHPA:1,2008-08-03T10:30:00Z,30.6671,-87.9365,26.27,1111122 
DISL,ioos:station:DISL:MHPA:1,2008-08-03T11:00:00Z,30.6671,-87.9365,26.14,1111122 
DISL,ioos:station:DISL:MHPA:1,2008-08-03T11:30:00Z,30.6671,-87.9365,26.03,1111122 
DISL,ioos:station:DISL:MHPA:1,2008-08-03T12:00:00Z,30.6671,-87.9365,26.04,1111122 
DISL,ioos:station:DISL:MHPA:1,2008-08-03T12:30:00Z,30.6671,-87.9365,26.33,1111122 
DISL,ioos:station:DISL:MHPA:1,2008-08-03T13:00:00Z,30.6671,-87.9365,26.72,1111122 
DISL,ioos:station:DISL:MHPA:1,2008-08-03T13:30:00Z,30.6671,-87.9365,27.67,1111122 
DISL,ioos:station:DISL:MHPA:1,2008-08-03T14:00:00Z,30.6671,-87.9365,28.42,1111122 
DISL,ioos:station:DISL:MHPA:1,2008-08-03T14:30:00Z,30.6671,-87.9365,28.85,1111122 
DISL,ioos:station:DISL:MHPA:1,2008-08-03T15:00:00Z,30.6671,-87.9365,29.23,1111122 
DISL,ioos:station:DISL:MHPA:1,2008-08-03T15:30:00Z,30.6671,-87.9365,29.81,1111122 
DISL,ioos:station:DISL:MHPA:1,2008-08-03T16:00:00Z,30.6671,-87.9365,29.7,1111122 
DISL,ioos:station:DISL:MHPA:1,2008-08-03T16:30:00Z,30.6671,-87.9365,29.58,1111122 
DISL,ioos:station:DISL:MHPA:1,2008-08-03T17:00:00Z,30.6671,-87.9365,29.58,1111122 
DISL,ioos:station:DISL:MHPA:1,2008-08-03T17:30:00Z,30.6671,-87.9365,30.07,1111122 
DISL,ioos:station:DISL:MHPA:1,2008-08-03T18:00:00Z,30.6671,-87.9365,30.3,1111122 
DISL,ioos:station:DISL:MHPA:1,2008-08-03T18:30:00Z,30.6671,-87.9365,30.3,1111122 
DISL,ioos:station:DISL:MHPA:1,2008-08-03T19:00:00Z,30.6671,-87.9365,30.06,1111122 
DISL,ioos:station:DISL:MHPA:1,2008-08-03T19:30:00Z,30.6671,-87.9365,30.09,1111122 
DISL,ioos:station:DISL:MHPA:1,2008-08-03T20:00:00Z,30.6671,-87.9365,29.94,1111122 
DISL,ioos:station:DISL:MHPA:1,2008-08-03T20:30:00Z,30.6671,-87.9365,30.03,1111122 
DISL,ioos:station:DISL:MHPA:1,2008-08-03T21:00:00Z,30.6671,-87.9365,29.87,1111122 
DISL,ioos:station:DISL:MHPA:1,2008-08-03T21:30:00Z,30.6671,-87.9365,29.98,1111122 
DISL,ioos:station:DISL:MHPA:1,2008-08-03T22:00:00Z,30.6671,-87.9365,29.85,1111122 
DISL,ioos:station:DISL:MHPA:1,2008-08-03T22:30:00Z,30.6671,-87.9365,29.74,1111122 
DISL,ioos:station:DISL:MHPA:1,2008-08-03T23:00:00Z,30.6671,-87.9365,29.21,1111122 
DISL,ioos:station:DISL:MHPA:1,2008-08-03T23:30:00Z,30.6671,-87.9365,28.92,1111122 
DISL,ioos:station:DISL:MHPA:1,2008-08-04T00:00:00Z,30.6671,-87.9365,28.52,1111122 
DISL,ioos:station:DISL:MHPA:1,2008-08-04T00:30:00Z,30.6671,-87.9365,28.23,1111122 
DISL,ioos:station:DISL:MHPA:1,2008-08-04T01:00:00Z,30.6671,-87.9365,27.67,1111122 
DISL,ioos:station:DISL:MHPA:1,2008-08-04T01:30:00Z,30.6671,-87.9365,27.29,1111122 
DISL,ioos:station:DISL:MHPA:1,2008-08-04T02:00:00Z,30.6671,-87.9365,26.75,1111122 
DISL,ioos:station:DISL:MHPA:1,2008-08-04T02:30:00Z,30.6671,-87.9365,26.67,1111122 
DISL,ioos:station:DISL:MHPA:1,2008-08-04T03:00:00Z,30.6671,-87.9365,26.14,1111122 
DISL,ioos:station:DISL:MHPA:1,2008-08-04T03:30:00Z,30.6671,-87.9365,26.07,1111122 
DISL,ioos:station:DISL:MHPA:1,2008-08-04T04:00:00Z,30.6671,-87.9365,26.02,1111122 
DISL,ioos:station:DISL:MHPA:1,2008-08-04T04:30:00Z,30.6671,-87.9365,26.2,1111122 
DISL,ioos:station:DISL:MHPA:1,2008-08-04T05:00:00Z,30.6671,-87.9365,25.9,1111122 
DISL,ioos:station:DISL:MHPA:1,2008-08-04T05:30:00Z,30.6671,-87.9365,25.58,1111122 
DISL,ioos:station:DISL:MHPA:1,2008-08-04T06:00:00Z,30.6671,-87.9365,25.56,1111122 
DISL,ioos:station:DISL:MHPA:1,2008-08-04T06:30:00Z,30.6671,-87.9365,25.14,1111122 
DISL,ioos:station:DISL:MHPA:1,2008-08-04T07:00:00Z,30.6671,-87.9365,25.15,1111122 
DISL,ioos:station:DISL:MHPA:1,2008-08-04T07:30:00Z,30.6671,-87.9365,25.06,1111122 
DISL,ioos:station:DISL:MHPA:1,2008-08-04T08:00:00Z,30.6671,-87.9365,24.78,1111122 
DISL,ioos:station:DISL:MHPA:1,2008-08-04T08:30:00Z,30.6671,-87.9365,24.05,1111122 
DISL,ioos:station:DISL:MHPA:1,2008-08-04T09:00:00Z,30.6671,-87.9365,24.48,1111122 
DISL,ioos:station:DISL:MHPA:1,2008-08-04T09:30:00Z,30.6671,-87.9365,24.5,1111122 
DISL,ioos:station:DISL:MHPA:1,2008-08-04T10:00:00Z,30.6671,-87.9365,24.88,1111122 
DISL,ioos:station:DISL:MHPA:1,2008-08-04T10:30:00Z,30.6671,-87.9365,24.69,1111122 
DISL,ioos:station:DISL:MHPA:1,2008-08-04T11:00:00Z,30.6671,-87.9365,24.88,1111122 
DISL,ioos:station:DISL:MHPA:1,2008-08-04T11:30:00Z,30.6671,-87.9365,24.84,1111122 
DISL,ioos:station:DISL:MHPA:1,2008-08-04T12:00:00Z,30.6671,-87.9365,24.93,1111122 
DISL,ioos:station:DISL:MHPA:1,2008-08-04T12:30:00Z,30.6671,-87.9365,25.71,1111122 
DISL,ioos:station:DISL:MHPA:1,2008-08-04T13:00:00Z,30.6671,-87.9365,26.12,1111122 
DISL,ioos:station:DISL:MHPA:1,2008-08-04T13:30:00Z,30.6671,-87.9365,26.5,1111122 
DISL,ioos:station:DISL:MHPA:1,2008-08-04T14:00:00Z,30.6671,-87.9365,27.19,1111122 
DISL,ioos:station:DISL:MHPA:1,2008-08-04T14:30:00Z,30.6671,-87.9365,27.9,1111122 
DISL,ioos:station:DISL:MHPA:1,2008-08-04T15:00:00Z,30.6671,-87.9365,28.29,1111122 
DISL,ioos:station:DISL:MHPA:1,2008-08-04T15:30:00Z,30.6671,-87.9365,28.5,1111122 
DISL,ioos:station:DISL:MHPA:1,2008-08-04T16:00:00Z,30.6671,-87.9365,28.73,1111122 
DISL,ioos:station:DISL:MHPA:1,2008-08-04T16:30:00Z,30.6671,-87.9365,28.98,1111122 
DISL,ioos:station:DISL:MHPA:1,2008-08-04T17:00:00Z,30.6671,-87.9365,29.24,1111122 
DISL,ioos:station:DISL:MHPA:1,2008-08-04T17:30:00Z,30.6671,-87.9365,29.09,1111122 
DISL,ioos:station:DISL:MHPA:1,2008-08-04T18:00:00Z,30.6671,-87.9365,29.87,1111122 
DISL,ioos:station:DISL:MHPA:1,2008-08-04T18:30:00Z,30.6671,-87.9365,29.86,1111122 
DISL,ioos:station:DISL:MHPA:1,2008-08-04T19:00:00Z,30.6671,-87.9365,29.77,1111122 
DISL,ioos:station:DISL:MHPA:1,2008-08-04T19:30:00Z,30.6671,-87.9365,29.83,1111122 
DISL,ioos:station:DISL:MHPA:1,2008-08-04T20:00:00Z,30.6671,-87.9365,29.8,1111122 
DISL,ioos:station:DISL:MHPA:1,2008-08-04T20:30:00Z,30.6671,-87.9365,29.74,1111122 
DISL,ioos:station:DISL:MHPA:1,2008-08-04T21:00:00Z,30.6671,-87.9365,29.67,1111122 
DISL,ioos:station:DISL:MHPA:1,2008-08-04T21:30:00Z,30.6671,-87.9365,29.51,1111122 
DISL,ioos:station:DISL:MHPA:1,2008-08-04T22:00:00Z,30.6671,-87.9365,30.01,1111122 
DISL,ioos:station:DISL:MHPA:1,2008-08-04T22:30:00Z,30.6671,-87.9365,29.99,1111122 
DISL,ioos:station:DISL:MHPA:1,2008-08-04T23:00:00Z,30.6671,-87.9365,29.68,1111122 
DISL,ioos:station:DISL:MHPA:1,2008-08-04T23:30:00Z,30.6671,-87.9365,29.65,1111122 
DISL,ioos:station:DISL:MHPA:1,2008-08-05T00:00:00Z,30.6671,-87.9365,29.14,1111122 
DISL,ioos:station:DISL:MHPA:1,2008-08-05T00:30:00Z,30.6671,-87.9365,28.9,1111122 
DISL,ioos:station:DISL:MHPA:1,2008-08-05T01:00:00Z,30.6671,-87.9365,28.48,1111122 
DISL,ioos:station:DISL:MHPA:1,2008-08-05T01:30:00Z,30.6671,-87.9365,28.13,1111122 
DISL,ioos:station:DISL:MHPA:1,2008-08-05T02:00:00Z,30.6671,-87.9365,28.0,1111122 
DISL,ioos:station:DISL:MHPA:1,2008-08-05T02:30:00Z,30.6671,-87.9365,27.77,1111122 
DISL,ioos:station:DISL:MHPA:1,2008-08-05T03:00:00Z,30.6671,-87.9365,27.45,1111122 
DISL,ioos:station:DISL:MHPA:1,2008-08-05T03:30:00Z,30.6671,-87.9365,27.28,1111122 
DISL,ioos:station:DISL:MHPA:1,2008-08-05T04:00:00Z,30.6671,-87.9365,27.1,1111122 
DISL,ioos:station:DISL:MHPA:1,2008-08-05T04:30:00Z,30.6671,-87.9365,27.04,1111122 
DISL,ioos:station:DISL:MHPA:1,2008-08-05T05:00:00Z,30.6671,-87.9365,26.93,1111122 
DISL,ioos:station:DISL:MHPA:1,2008-08-05T05:30:00Z,30.6671,-87.9365,26.55,1111122 
DISL,ioos:station:DISL:MHPA:1,2008-08-05T06:00:00Z,30.6671,-87.9365,26.41,1111122 
DISL,ioos:station:DISL:MHPA:1,2008-08-05T06:30:00Z,30.6671,-87.9365,26.34,1111122 
DISL,ioos:station:DISL:MHPA:1,2008-08-05T07:00:00Z,30.6671,-87.9365,26.22,1111122 
DISL,ioos:station:DISL:MHPA:1,2008-08-05T07:30:00Z,30.6671,-87.9365,25.96,1111122 
DISL,ioos:station:DISL:MHPA:1,2008-08-05T08:00:00Z,30.6671,-87.9365,26.02,1111122 
DISL,ioos:station:DISL:MHPA:1,2008-08-05T08:30:00Z,30.6671,-87.9365,26.03,1111122 
DISL,ioos:station:DISL:MHPA:1,2008-08-05T09:00:00Z,30.6671,-87.9365,26.11,1111122 
DISL,ioos:station:DISL:MHPA:1,2008-08-05T09:30:00Z,30.6671,-87.9365,26.03,1111122 
DISL,ioos:station:DISL:MHPA:1,2008-08-05T10:00:00Z,30.6671,-87.9365,25.95,1111122 
DISL,ioos:station:DISL:MHPA:1,2008-08-05T10:30:00Z,30.6671,-87.9365,25.74,1111122 
DISL,ioos:station:DISL:MHPA:1,2008-08-05T11:00:00Z,30.6671,-87.9365,25.74,1111122 
DISL,ioos:station:DISL:MHPA:1,2008-08-05T11:30:00Z,30.6671,-87.9365,25.54,1111122 
DISL,ioos:station:DISL:MHPA:1,2008-08-05T12:00:00Z,30.6671,-87.9365,26.0,1111122 
DISL,ioos:station:DISL:MHPA:1,2008-08-05T12:30:00Z,30.6671,-87.9365,26.66,1111122 
DISL,ioos:station:DISL:MHPA:1,2008-08-05T13:00:00Z,30.6671,-87.9365,27.17,1111122 
DISL,ioos:station:DISL:MHPA:1,2008-08-05T13:30:00Z,30.6671,-87.9365,27.94,1111122 
DISL,ioos:station:DISL:MHPA:1,2008-08-05T14:00:00Z,30.6671,-87.9365,28.11,1111122 
DISL,ioos:station:DISL:MHPA:1,2008-08-05T14:30:00Z,30.6671,-87.9365,28.27,1111122 
DISL,ioos:station:DISL:MHPA:1,2008-08-05T15:00:00Z,30.6671,-87.9365,28.37,1111122 
DISL,ioos:station:DISL:MHPA:1,2008-08-05T15:30:00Z,30.6671,-87.9365,28.41,1111122 
DISL,ioos:station:DISL:MHPA:1,2008-08-05T16:00:00Z,30.6671,-87.9365,28.56,1111122 
DISL,ioos:station:DISL:MHPA:1,2008-08-05T16:30:00Z,30.6671,-87.9365,28.66,1111122 
DISL,ioos:station:DISL:MHPA:1,2008-08-05T17:00:00Z,30.6671,-87.9365,28.83,1111122 
DISL,ioos:station:DISL:MHPA:1,2008-08-05T17:30:00Z,30.6671,-87.9365,29.05,1111122 
DISL,ioos:station:DISL:MHPA:1,2008-08-05T18:00:00Z,30.6671,-87.9365,29.24,1111122 
DISL,ioos:station:DISL:MHPA:1,2008-08-05T18:30:00Z,30.6671,-87.9365,29.39,1111122 
DISL,ioos:station:DISL:MHPA:1,2008-08-05T19:00:00Z,30.6671,-87.9365,29.45,1111122 
DISL,ioos:station:DISL:MHPA:1,2008-08-05T19:30:00Z,30.6671,-87.9365,29.43,1111122 
DISL,ioos:station:DISL:MHPA:1,2008-08-05T20:00:00Z,30.6671,-87.9365,29.54,1111122 
DISL,ioos:station:DISL:MHPA:1,2008-08-05T20:30:00Z,30.6671,-87.9365,29.57,1111122 
DISL,ioos:station:DISL:MHPA:1,2008-08-05T21:00:00Z,30.6671,-87.9365,29.52,1111122 
DISL,ioos:station:DISL:MHPA:1,2008-08-05T21:30:00Z,30.6671,-87.9365,29.55,1111122 
DISL,ioos:station:DISL:MHPA:1,2008-08-05T22:00:00Z,30.6671,-87.9365,29.46,1111122 
DISL,ioos:station:DISL:MHPA:1,2008-08-05T22:30:00Z,30.6671,-87.9365,29.67,1111122 
DISL,ioos:station:DISL:MHPA:1,2008-08-05T23:00:00Z,30.6671,-87.9365,29.6,1111122 
DISL,ioos:station:DISL:MHPA:1,2008-08-05T23:30:00Z,30.6671,-87.9365,29.7,1111122 
DISL,ioos:station:DISL:MHPA:1,2008-08-06T00:00:00Z,30.6671,-87.9365,29.54,1111122 
DISL,ioos:station:DISL:MHPA:1,2008-08-06T00:30:00Z,30.6671,-87.9365,29.59,1111122 
DISL,ioos:station:DISL:MHPA:1,2008-08-06T01:00:00Z,30.6671,-87.9365,29.49,1111122 
DISL,ioos:station:DISL:MHPA:1,2008-08-06T01:30:00Z,30.6671,-87.9365,29.12,1111122 
DISL,ioos:station:DISL:MHPA:1,2008-08-06T02:00:00Z,30.6671,-87.9365,28.94,1111122 
DISL,ioos:station:DISL:MHPA:1,2008-08-06T02:30:00Z,30.6671,-87.9365,28.76,1111122 
DISL,ioos:station:DISL:MHPA:1,2008-08-06T03:00:00Z,30.6671,-87.9365,28.65,1111122 
DISL,ioos:station:DISL:MHPA:1,2008-08-06T03:30:00Z,30.6671,-87.9365,28.65,1111122 
DISL,ioos:station:DISL:MHPA:1,2008-08-06T04:00:00Z,30.6671,-87.9365,28.54,1111122 
DISL,ioos:station:DISL:MHPA:1,2008-08-06T04:30:00Z,30.6671,-87.9365,28.39,1111122 
DISL,ioos:station:DISL:MHPA:1,2008-08-06T05:00:00Z,30.6671,-87.9365,28.37,1111122 
DISL,ioos:station:DISL:MHPA:1,2008-08-06T05:30:00Z,30.6671,-87.9365,28.29,1111122 
DISL,ioos:station:DISL:MHPA:1,2008-08-06T06:00:00Z,30.6671,-87.9365,28.05,1111122 
DISL,ioos:station:DISL:MHPA:1,2008-08-06T06:30:00Z,30.6671,-87.9365,27.88,1111122 
DISL,ioos:station:DISL:MHPA:1,2008-08-06T07:00:00Z,30.6671,-87.9365,27.67,1111122 
DISL,ioos:station:DISL:MHPA:1,2008-08-06T07:30:00Z,30.6671,-87.9365,27.34,1111122 
DISL,ioos:station:DISL:MHPA:1,2008-08-06T08:00:00Z,30.6671,-87.9365,26.82,1111122 
DISL,ioos:station:DISL:MHPA:1,2008-08-06T08:30:00Z,30.6671,-87.9365,26.81,1111122 
DISL,ioos:station:DISL:MHPA:1,2008-08-06T09:00:00Z,30.6671,-87.9365,26.49,1111122 
DISL,ioos:station:DISL:MHPA:1,2008-08-06T09:30:00Z,30.6671,-87.9365,26.24,1111122 
DISL,ioos:station:DISL:MHPA:1,2008-08-06T10:00:00Z,30.6671,-87.9365,25.86,1111122 
DISL,ioos:station:DISL:MHPA:1,2008-08-06T10:30:00Z,30.6671,-87.9365,25.78,1111122 
DISL,ioos:station:DISL:MHPA:1,2008-08-06T11:00:00Z,30.6671,-87.9365,25.56,1111122 
DISL,ioos:station:DISL:MHPA:1,2008-08-06T11:30:00Z,30.6671,-87.9365,25.54,1111122 
DISL,ioos:station:DISL:MHPA:1,2008-08-06T12:00:00Z,30.6671,-87.9365,25.91,1111122 
DISL,ioos:station:DISL:MHPA:1,2008-08-06T12:30:00Z,30.6671,-87.9365,25.9,1111122 
DISL,ioos:station:DISL:MHPA:1,2008-08-06T13:00:00Z,30.6671,-87.9365,26.18,1111122 
DISL,ioos:station:DISL:MHPA:1,2008-08-06T13:30:00Z,30.6671,-87.9365,26.69,1111122 
DISL,ioos:station:DISL:MHPA:1,2008-08-06T14:00:00Z,30.6671,-87.9365,27.44,1111122 
DISL,ioos:station:DISL:MHPA:1,2008-08-06T14:30:00Z,30.6671,-87.9365,28.05,1111122 
DISL,ioos:station:DISL:MHPA:1,2008-08-06T15:00:00Z,30.6671,-87.9365,28.51,1111122 
DISL,ioos:station:DISL:MHPA:1,2008-08-06T15:30:00Z,30.6671,-87.9365,29.32,1111122 
DISL,ioos:station:DISL:MHPA:1,2008-08-06T16:00:00Z,30.6671,-87.9365,29.75,1111122 
DISL,ioos:station:DISL:MHPA:1,2008-08-06T16:30:00Z,30.6671,-87.9365,30.25,1111122 
DISL,ioos:station:DISL:MHPA:1,2008-08-06T17:00:00Z,30.6671,-87.9365,30.88,1111122 
DISL,ioos:station:DISL:MHPA:1,2008-08-06T17:30:00Z,30.6671,-87.9365,31.21,1111122 
DISL,ioos:station:DISL:MHPA:1,2008-08-06T18:00:00Z,30.6671,-87.9365,31.87,1111122 
DISL,ioos:station:DISL:MHPA:1,2008-08-06T18:30:00Z,30.6671,-87.9365,32.29,1111122 
DISL,ioos:station:DISL:MHPA:1,2008-08-06T19:00:00Z,30.6671,-87.9365,32.78,1111122 
DISL,ioos:station:DISL:MHPA:1,2008-08-06T19:30:00Z,30.6671,-87.9365,32.23,1111122 
DISL,ioos:station:DISL:MHPA:1,2008-08-06T20:00:00Z,30.6671,-87.9365,32.45,1111122 
DISL,ioos:station:DISL:MHPA:1,2008-08-06T20:30:00Z,30.6671,-87.9365,32.26,1111122 
DISL,ioos:station:DISL:MHPA:1,2008-08-06T21:00:00Z,30.6671,-87.9365,32.28,1111122 
DISL,ioos:station:DISL:MHPA:1,2008-08-06T21:30:00Z,30.6671,-87.9365,32.42,1111122 
DISL,ioos:station:DISL:MHPA:1,2008-08-06T22:00:00Z,30.6671,-87.9365,32.42,1111122 
DISL,ioos:station:DISL:MHPA:1,2008-08-06T22:30:00Z,30.6671,-87.9365,32.26,1111122 
DISL,ioos:station:DISL:MHPA:1,2008-08-06T23:00:00Z,30.6671,-87.9365,31.89,1111122 
DISL,ioos:station:DISL:MHPA:1,2008-08-06T23:30:00Z,30.6671,-87.9365,31.73,1111122 